Time,TemperatureF,DewpointF,PressureIn,WindDirection,WindDirectionDegrees,WindSpeedMPH,WindSpeedGustMPH,Humidity,HourlyPrecipIn,Conditions,Clouds,dailyrainin,SolarRadiationWatts/m^2,SoftwareType,DateUTC
2013-05-20 00:03:00,69.0,68.0,30.38,SE,130,2.0,7.0,96,0.00,,,0.00,0.000000,,2013-05-20 04:03:00,
2013-05-20 00:13:00,69.0,68.0,30.38,SE,130,2.0,7.0,96,0.00,,,0.00,0.000000,,2013-05-20 04:13:00,
2013-05-20 00:33:00,68.0,67.0,30.38,SSE,149,4.0,8.0,97,0.00,,,0.00,0.000000,,2013-05-20 04:33:00,
2013-05-20 00:43:00,68.0,67.0,30.38,SSE,149,4.0,8.0,97,0.00,,,0.00,0.000000,,2013-05-20 04:43:00,
2013-05-20 00:53:00,68.0,67.0,30.38,SSE,149,4.0,8.0,97,0.00,,,0.00,0.000000,,2013-05-20 04:53:00,
2013-05-20 01:02:00,68.0,67.0,30.38,SSE,149,4.0,8.0,97,0.00,,,0.00,0.000000,,2013-05-20 05:02:00,
2013-05-20 01:12:00,68.0,67.0,30.38,SSE,149,4.0,8.0,97,0.00,,,0.00,0.000000,,2013-05-20 05:12:00,
2013-05-20 01:32:00,68.0,67.0,30.37,SSE,153,3.0,7.0,97,0.00,,,0.00,0.000000,,2013-05-20 05:32:00,
2013-05-20 01:42:00,68.0,67.0,30.37,SSE,153,3.0,7.0,97,0.00,,,0.00,0.000000,,2013-05-20 05:42:00,
2013-05-20 01:52:00,68.0,67.0,30.37,SSE,153,3.0,7.0,97,0.00,,,0.00,0.000000,,2013-05-20 05:52:00,
2013-05-20 02:01:00,68.0,67.0,30.37,SSE,153,3.0,7.0,97,0.00,,,0.00,0.000000,,2013-05-20 06:01:00,
2013-05-20 02:11:00,68.0,67.0,30.37,SSE,153,3.0,7.0,97,0.00,,,0.00,0.000000,,2013-05-20 06:11:00,
2013-05-20 02:32:00,71.0,69.0,30.35,South,174,5.0,10.0,93,0.00,,,0.00,0.000000,,2013-05-20 06:32:00,
2013-05-20 02:42:00,71.0,69.0,30.35,South,174,5.0,10.0,93,0.00,,,0.00,0.000000,,2013-05-20 06:42:00,
2013-05-20 02:52:00,71.0,69.0,30.35,South,174,5.0,10.0,93,0.00,,,0.00,0.000000,,2013-05-20 06:52:00,
2013-05-20 03:02:00,71.0,69.0,30.35,South,174,5.0,10.0,93,0.00,,,0.00,0.000000,,2013-05-20 07:02:00,
2013-05-20 03:12:00,71.0,69.0,30.35,South,174,5.0,10.0,93,0.00,,,0.00,0.000000,,2013-05-20 07:12:00,
2013-05-20 03:42:00,70.0,67.0,30.34,South,169,5.0,12.0,91,0.00,,,0.00,0.000000,,2013-05-20 07:42:00,
2013-05-20 03:52:00,70.0,67.0,30.34,South,169,5.0,12.0,91,0.00,,,0.00,0.000000,,2013-05-20 07:52:00,
2013-05-20 04:01:00,70.0,67.0,30.34,South,169,5.0,12.0,91,0.00,,,0.00,0.000000,,2013-05-20 08:01:00,
2013-05-20 04:11:00,70.0,67.0,30.34,South,169,5.0,12.0,91,0.00,,,0.00,0.000000,,2013-05-20 08:11:00,
2013-05-20 04:42:00,69.0,66.0,30.34,South,171,4.0,10.0,91,0.00,,,0.00,0.000000,,2013-05-20 08:42:00,
2013-05-20 04:52:00,69.0,66.0,30.34,South,171,4.0,10.0,91,0.00,,,0.00,0.000000,,2013-05-20 08:52:00,
2013-05-20 05:02:00,69.0,66.0,30.34,South,171,4.0,10.0,91,0.00,,,0.00,0.000000,,2013-05-20 09:02:00,
2013-05-20 05:12:00,69.0,66.0,30.34,South,171,4.0,10.0,91,0.00,,,0.00,0.000000,,2013-05-20 09:12:00,
2013-05-20 05:43:00,69.0,67.0,30.35,South,173,4.0,8.0,94,0.00,,,0.00,0.000000,,2013-05-20 09:43:00,
2013-05-20 05:53:00,69.0,67.0,30.35,South,173,4.0,8.0,94,0.00,,,0.00,0.000000,,2013-05-20 09:53:00,
2013-05-20 06:03:00,69.0,67.0,30.35,South,173,4.0,8.0,94,0.00,,,0.00,0.000000,,2013-05-20 10:03:00,
2013-05-20 06:12:00,69.0,67.0,30.35,South,173,4.0,8.0,94,0.00,,,0.00,0.000000,,2013-05-20 10:12:00,
2013-05-20 06:33:00,70.0,68.0,30.36,South,189,5.0,10.0,92,0.00,,,0.00,0.000000,,2013-05-20 10:33:00,
2013-05-20 06:42:00,70.0,68.0,30.36,South,189,5.0,10.0,92,0.00,,,0.00,0.000000,,2013-05-20 10:42:00,
2013-05-20 06:52:00,70.0,68.0,30.36,South,189,5.0,10.0,92,0.00,,,0.00,0.000000,,2013-05-20 10:52:00,
2013-05-20 07:02:00,70.0,68.0,30.36,South,189,5.0,10.0,92,0.00,,,0.00,0.000000,,2013-05-20 11:02:00,
2013-05-20 07:12:00,70.0,68.0,30.36,South,189,5.0,10.0,92,0.00,,,0.00,0.000000,,2013-05-20 11:12:00,
2013-05-20 07:42:00,70.0,68.0,30.38,SSW,212,3.0,9.0,92,0.00,,,0.00,30.000000,,2013-05-20 11:42:00,
2013-05-20 07:52:00,70.0,68.0,30.38,SSW,212,3.0,9.0,92,0.00,,,0.00,30.000000,,2013-05-20 11:52:00,
2013-05-20 08:01:00,70.0,68.0,30.38,SSW,212,3.0,9.0,92,0.00,,,0.00,30.000000,,2013-05-20 12:01:00,
2013-05-20 08:12:00,70.0,68.0,30.38,SSW,212,3.0,9.0,92,0.00,,,0.00,30.000000,,2013-05-20 12:12:00,
2013-05-20 08:42:00,74.0,70.0,30.39,SSW,205,4.0,7.0,88,0.00,,,0.00,116.000000,,2013-05-20 12:42:00,
2013-05-20 08:52:00,74.0,70.0,30.39,SSW,205,4.0,7.0,88,0.00,,,0.00,116.000000,,2013-05-20 12:52:00,
2013-05-20 09:01:00,74.0,70.0,30.39,SSW,205,4.0,7.0,88,0.00,,,0.00,116.000000,,2013-05-20 13:01:00,
2013-05-20 09:11:00,74.0,70.0,30.39,SSW,205,4.0,7.0,88,0.00,,,0.00,116.000000,,2013-05-20 13:11:00,
2013-05-20 09:42:00,71.0,67.0,30.40,SW,219,7.0,15.0,88,0.00,,,0.00,187.000000,,2013-05-20 13:42:00,
2013-05-20 09:52:00,71.0,67.0,30.40,SW,219,7.0,15.0,88,0.00,,,0.00,187.000000,,2013-05-20 13:52:00,
2013-05-20 10:01:00,71.0,67.0,30.40,SW,219,7.0,15.0,88,0.00,,,0.00,187.000000,,2013-05-20 14:01:00,
2013-05-20 10:11:00,71.0,67.0,30.40,SW,219,7.0,15.0,88,0.00,,,0.00,187.000000,,2013-05-20 14:11:00,
2013-05-20 10:32:00,75.0,71.0,30.39,SSW,210,5.0,16.0,87,0.00,,,0.00,222.000000,,2013-05-20 14:32:00,
2013-05-20 10:42:00,75.0,71.0,30.39,SSW,210,5.0,16.0,87,0.00,,,0.00,222.000000,,2013-05-20 14:42:00,
2013-05-20 10:52:00,75.0,71.0,30.39,SSW,210,5.0,16.0,87,0.00,,,0.00,222.000000,,2013-05-20 14:52:00,
2013-05-20 11:01:00,75.0,71.0,30.39,SSW,210,5.0,16.0,87,0.00,,,0.00,222.000000,,2013-05-20 15:01:00,
2013-05-20 11:12:00,75.0,71.0,30.39,SSW,210,5.0,16.0,87,0.00,,,0.00,222.000000,,2013-05-20 15:12:00,
2013-05-20 11:42:00,80.0,70.0,30.38,SSW,201,8.0,16.0,72,0.00,,,0.00,575.000000,,2013-05-20 15:42:00,
2013-05-20 11:53:00,80.0,70.0,30.38,SSW,201,8.0,16.0,72,0.00,,,0.00,575.000000,,2013-05-20 15:53:00,
2013-05-20 12:03:00,80.0,70.0,30.38,SSW,201,8.0,16.0,72,0.00,,,0.00,575.000000,,2013-05-20 16:03:00,
2013-05-20 12:13:00,80.0,70.0,30.38,SSW,201,8.0,16.0,72,0.00,,,0.00,575.000000,,2013-05-20 16:13:00,
2013-05-20 12:33:00,78.0,67.0,30.38,SW,214,9.0,18.0,69,0.00,,,0.00,532.000000,,2013-05-20 16:33:00,
2013-05-20 12:42:00,78.0,67.0,30.38,SW,214,9.0,18.0,69,0.00,,,0.00,532.000000,,2013-05-20 16:42:00,
2013-05-20 12:53:00,78.0,67.0,30.38,SW,214,9.0,18.0,69,0.00,,,0.00,532.000000,,2013-05-20 16:53:00,
2013-05-20 13:03:00,78.0,67.0,30.38,SW,214,9.0,18.0,69,0.00,,,0.00,532.000000,,2013-05-20 17:03:00,
2013-05-20 13:12:00,78.0,67.0,30.38,SW,214,9.0,18.0,69,0.00,,,0.00,532.000000,,2013-05-20 17:12:00,
2013-05-20 13:45:00,80.0,68.0,30.36,SSW,209,9.0,22.0,66,0.00,,,0.00,655.000000,,2013-05-20 17:45:00,
2013-05-20 13:53:00,80.0,68.0,30.36,SSW,209,9.0,22.0,66,0.00,,,0.00,655.000000,,2013-05-20 17:53:00,
2013-05-20 14:02:00,80.0,68.0,30.36,SSW,209,9.0,22.0,66,0.00,,,0.00,655.000000,,2013-05-20 18:02:00,
2013-05-20 14:12:00,80.0,68.0,30.36,SSW,209,9.0,22.0,66,0.00,,,0.00,655.000000,,2013-05-20 18:12:00,
2013-05-20 14:42:00,82.0,67.0,30.35,SSW,194,11.0,21.0,61,0.00,,,0.00,518.000000,,2013-05-20 18:42:00,
2013-05-20 14:55:00,82.0,67.0,30.35,SSW,194,11.0,21.0,61,0.00,,,0.00,518.000000,,2013-05-20 18:55:00,
2013-05-20 15:04:00,82.0,67.0,30.35,SSW,194,11.0,21.0,61,0.00,,,0.00,518.000000,,2013-05-20 19:04:00,
2013-05-20 15:11:00,82.0,67.0,30.35,SSW,194,11.0,21.0,61,0.00,,,0.00,518.000000,,2013-05-20 19:11:00,
2013-05-20 15:42:00,80.0,67.0,30.34,SSW,211,8.0,20.0,64,0.00,,,0.00,664.000000,,2013-05-20 19:42:00,
2013-05-20 15:53:00,80.0,67.0,30.34,SSW,211,8.0,20.0,64,0.00,,,0.00,664.000000,,2013-05-20 19:53:00,
2013-05-20 16:02:00,80.0,67.0,30.34,SSW,211,8.0,20.0,64,0.00,,,0.00,664.000000,,2013-05-20 20:02:00,
2013-05-20 16:12:00,80.0,67.0,30.34,SSW,211,8.0,20.0,64,0.00,,,0.00,664.000000,,2013-05-20 20:12:00,
2013-05-20 16:42:00,77.0,67.0,30.33,SSW,203,7.0,21.0,71,0.00,,,0.00,452.000000,,2013-05-20 20:42:00,
2013-05-20 16:52:00,77.0,67.0,30.33,SSW,203,7.0,21.0,71,0.00,,,0.00,452.000000,,2013-05-20 20:52:00,
2013-05-20 17:01:00,77.0,67.0,30.33,SSW,203,7.0,21.0,71,0.00,,,0.00,452.000000,,2013-05-20 21:01:00,
2013-05-20 17:11:00,77.0,67.0,30.33,SSW,203,7.0,21.0,71,0.00,,,0.00,452.000000,,2013-05-20 21:11:00,
2013-05-20 17:43:00,69.0,68.0,30.34,SW,234,4.0,18.0,95,0.27,,,0.27,116.000000,,2013-05-20 21:43:00,
2013-05-20 17:53:00,69.0,68.0,30.34,SW,234,4.0,18.0,95,0.27,,,0.27,116.000000,,2013-05-20 21:53:00,
2013-05-20 18:02:00,69.0,68.0,30.34,SW,234,4.0,18.0,95,0.27,,,0.27,116.000000,,2013-05-20 22:02:00,
2013-05-20 18:13:00,69.0,68.0,30.34,SW,234,4.0,18.0,95,0.27,,,0.27,116.000000,,2013-05-20 22:13:00,
2013-05-20 18:42:00,74.0,72.0,30.32,SSE,153,1.0,5.0,92,0.05,,,0.32,179.000000,,2013-05-20 22:42:00,
2013-05-20 18:53:00,74.0,72.0,30.32,SSE,153,1.0,5.0,92,0.05,,,0.32,179.000000,,2013-05-20 22:53:00,
2013-05-20 19:03:00,74.0,72.0,30.32,SSE,153,1.0,5.0,92,0.05,,,0.32,179.000000,,2013-05-20 23:03:00,
2013-05-20 19:12:00,74.0,72.0,30.32,SSE,153,1.0,5.0,92,0.05,,,0.32,179.000000,,2013-05-20 23:12:00,
2013-05-20 19:42:00,74.0,70.0,30.32,SSE,167,6.0,11.0,88,0.05,,,0.37,218.000000,,2013-05-20 23:42:00,
2013-05-20 19:53:00,74.0,70.0,30.32,SSE,167,6.0,11.0,88,0.05,,,0.37,218.000000,,2013-05-20 23:53:00,
2013-05-20 20:01:00,74.0,70.0,30.32,SSE,167,6.0,11.0,88,0.05,,,0.37,218.000000,,2013-05-21 00:01:00,
2013-05-20 20:11:00,74.0,70.0,30.32,SSE,167,6.0,11.0,88,0.05,,,0.37,218.000000,,2013-05-21 00:11:00,
2013-05-20 20:42:00,71.0,69.0,30.32,East,80,2.0,9.0,95,0.03,,,0.40,41.000000,,2013-05-21 00:42:00,
2013-05-20 20:52:00,71.0,69.0,30.32,East,80,2.0,9.0,95,0.03,,,0.40,41.000000,,2013-05-21 00:52:00,
2013-05-20 21:01:00,71.0,69.0,30.32,East,80,2.0,9.0,95,0.03,,,0.40,41.000000,,2013-05-21 01:01:00,
2013-05-20 21:11:00,71.0,69.0,30.32,East,80,2.0,9.0,95,0.03,,,0.40,41.000000,,2013-05-21 01:11:00,
2013-05-20 21:42:00,69.0,68.0,30.33,South,171,3.0,10.0,96,0.01,,,0.41,0.000000,,2013-05-21 01:42:00,
2013-05-20 21:53:00,69.0,68.0,30.33,South,171,3.0,10.0,96,0.01,,,0.41,0.000000,,2013-05-21 01:53:00,
2013-05-20 22:02:00,69.0,68.0,30.33,South,171,3.0,10.0,96,0.01,,,0.41,0.000000,,2013-05-21 02:02:00,
2013-05-20 22:11:00,69.0,68.0,30.33,South,171,3.0,10.0,96,0.01,,,0.41,0.000000,,2013-05-21 02:11:00,
2013-05-20 22:32:00,70.0,69.0,30.33,SSE,167,3.0,6.0,98,0.01,,,0.42,0.000000,,2013-05-21 02:32:00,
2013-05-20 22:42:00,70.0,69.0,30.33,SSE,167,3.0,6.0,98,0.01,,,0.42,0.000000,,2013-05-21 02:42:00,
2013-05-20 22:52:00,70.0,69.0,30.33,SSE,167,3.0,6.0,98,0.01,,,0.42,0.000000,,2013-05-21 02:52:00,
2013-05-20 23:02:00,70.0,69.0,30.33,SSE,167,3.0,6.0,98,0.01,,,0.42,0.000000,,2013-05-21 03:02:00,
2013-05-20 23:11:00,70.0,69.0,30.33,SSE,167,3.0,6.0,98,0.01,,,0.42,0.000000,,2013-05-21 03:11:00,
2013-05-20 23:33:00,71.0,70.0,30.32,South,184,4.0,12.0,97,0.00,,,0.42,0.000000,,2013-05-21 03:33:00,
2013-05-20 23:43:00,71.0,70.0,30.32,South,184,4.0,12.0,97,0.00,,,0.42,0.000000,,2013-05-21 03:43:00,
2013-05-20 23:54:00,71.0,70.0,30.32,South,184,4.0,12.0,97,0.00,,,0.42,0.000000,,2013-05-21 03:54:00,